Simultaneous Nadir Overpasses (SNOs) Predictions

Prediction of SNOs between NOAA-21 and METOP-C Satellite Orbit:

Table of predicted SNOs for the next 14.0 days since TLE Epoch: 11/2/2024
Index Date (NOAA-21) Time (NOAA-21) Lat,Lon (NOAA-21) SZA (NOAA-21 ) Date (METOP-C) Time (METOP-C) Lat,Lon (METOP-C) SZA (METOP-C ) Distance(km) Time Diff (sec)
1 11/04/2024 04:47:05 -73.58, -81.33 90.93 11/04/2024 04:48:11 -73.53, -78.23 91.04 97.50 66
2 11/04/2024 05:37:47 73.36, 86.47 88.86 11/04/2024 05:38:55 73.29, 88.56 88.75 67.15 68
3 11/04/2024 06:28:29 -73.27,-106.01 91.24 11/04/2024 06:29:39 -73.21,-104.30 91.33 55.13 70
4 11/04/2024 07:19:11 73.05, 61.78 88.55 11/04/2024 07:20:23 72.97, 62.51 88.45 25.53 72
5 11/04/2024 08:09:53 -72.96,-130.71 91.54 11/04/2024 08:11:06 -72.94,-130.23 91.57 15.74 73
6 11/04/2024 09:00:37 72.84, 36.85 88.35 11/04/2024 09:01:47 72.84, 36.91 88.35 2.09 70
7 11/04/2024 09:51:20 -72.80,-155.74 91.69 11/04/2024 09:52:30 -72.81,-155.83 91.67 3.40 70
8 11/04/2024 10:42:07 72.83, 11.50 88.36 11/04/2024 10:43:09 72.82, 11.52 88.35 1.08 62
9 11/04/2024 11:32:51 -72.84, 178.80 91.62 11/04/2024 11:33:51 -72.84, 178.89 91.62 3.09 60
10 11/04/2024 12:23:37 72.82, -13.86 88.37 11/04/2024 12:24:31 72.80, -13.86 88.35 2.13 54
11 11/04/2024 13:14:21 -72.83, 153.44 91.61 11/04/2024 13:15:13 -72.82, 153.50 91.63 2.21 52
12 11/04/2024 14:05:07 72.81, -39.21 88.38 11/04/2024 14:05:52 72.83, -39.14 88.40 3.03 45
13 11/04/2024 14:55:51 -72.82, 128.09 91.60 11/04/2024 14:56:35 -72.79, 128.11 91.63 2.55 44
14 11/04/2024 15:46:37 72.80, -64.57 88.40 11/04/2024 15:47:14 72.80, -64.53 88.40 1.30 37
15 11/04/2024 16:37:21 -72.81, 102.73 91.59 11/04/2024 16:37:57 -72.77, 102.73 91.63 3.81 36
16 11/04/2024 17:28:07 72.79, -89.92 88.41 11/04/2024 17:28:36 72.78, -89.92 88.40 0.89 29
17 11/04/2024 18:18:51 -72.80, 77.38 91.58 11/04/2024 18:19:18 -72.80, 77.45 91.58 2.33 27
18 11/04/2024 19:09:37 72.78,-115.28 88.42 11/04/2024 19:09:58 72.76,-115.31 88.40 2.56 21
19 11/04/2024 20:00:21 -72.79, 52.02 91.57 11/04/2024 20:00:40 -72.78, 52.06 91.58 1.64 19
20 11/04/2024 20:51:07 72.77,-140.63 88.43 11/04/2024 20:51:19 72.78,-140.59 88.44 2.31 12
21 11/04/2024 21:41:50 -72.78, 26.67 91.56 11/04/2024 21:42:01 -72.75, 26.67 91.58 2.53 11
22 11/04/2024 22:32:36 72.76,-165.99 88.44 11/04/2024 22:32:40 72.76,-165.98 88.44 0.50 4
23 11/04/2024 23:23:20 -72.77, 1.31 91.54 11/04/2024 23:23:22 -72.78, 1.39 91.53 3.08 2
24 11/05/2024 00:14:06 72.75, 168.65 88.45 11/05/2024 00:14:02 72.74, 168.63 88.44 1.36 4
25 11/05/2024 01:04:50 -72.76, -24.05 91.53 11/05/2024 01:04:44 -72.76, -24.00 91.53 1.57 6
26 11/05/2024 01:55:36 72.74, 143.30 88.46 11/05/2024 01:55:24 72.71, 143.25 88.44 3.20 12
27 11/05/2024 02:46:20 -72.75, -49.40 91.52 11/05/2024 02:46:06 -72.73, -49.39 91.53 1.39 14
28 11/05/2024 03:37:06 72.73, 117.94 88.47 11/05/2024 03:36:45 72.74, 117.96 88.49 1.61 21
29 11/05/2024 04:27:50 -72.74, -74.76 91.51 11/05/2024 04:27:28 -72.71, -74.77 91.53 2.81 22
30 11/05/2024 05:18:36 72.72, 92.59 88.49 11/05/2024 05:18:07 72.72, 92.58 88.49 0.35 29
31 11/05/2024 06:09:20 -72.73,-100.11 91.50 11/05/2024 06:08:49 -72.74,-100.06 91.49 2.34 31
32 11/05/2024 07:00:06 72.71, 67.23 88.50 11/05/2024 06:59:29 72.69, 67.19 88.49 2.11 37
33 11/05/2024 07:50:50 -72.72,-125.47 91.49 11/05/2024 07:50:11 -72.72,-125.44 91.49 0.85 39
34 11/05/2024 08:41:36 72.70, 41.87 88.51 11/05/2024 08:40:50 72.72, 41.91 88.53 2.74 46
35 11/05/2024 09:32:20 -72.71,-150.82 91.48 11/05/2024 09:31:33 -72.69,-150.83 91.49 1.61 47
36 11/05/2024 10:23:06 72.69, 16.52 88.52 11/05/2024 10:22:12 72.70, 16.52 88.53 1.00 54
37 11/05/2024 11:13:50 -72.70,-176.18 91.47 11/05/2024 11:12:55 -72.67,-176.22 91.49 3.33 55
38 11/05/2024 12:04:36 72.68, -8.84 88.53 11/05/2024 12:03:34 72.68, -8.87 88.53 1.18 62
39 11/05/2024 12:55:20 -72.69, 158.46 91.46 11/05/2024 12:54:16 -72.70, 158.50 91.44 1.57 64
40 11/05/2024 13:46:06 72.67, -34.19 88.54 11/05/2024 13:44:56 72.65, -34.26 88.53 2.96 70
41 11/05/2024 14:36:50 -72.68, 133.11 91.44 11/05/2024 14:35:38 -72.67, 133.11 91.44 0.49 72
42 11/05/2024 15:27:33 72.51, -59.24 88.39 11/05/2024 15:26:20 72.53, -59.85 88.43 20.51 73
43 11/05/2024 16:18:16 -72.47, 108.16 91.64 11/05/2024 16:17:03 -72.50, 107.42 91.59 25.22 73
44 11/05/2024 17:08:57 72.19, -83.99 88.09 11/05/2024 17:07:48 72.20, -85.84 88.13 62.93 69
45 11/05/2024 17:59:40 -72.15, 83.40 91.95 11/05/2024 17:58:31 -72.17, 81.43 91.89 67.32 69



Historial Predications of SNOs between NOAA-21 and METOP-C
